TimeEDT,TemperatureF,Dew PointF,Humidity,Sea Level PressureIn,VisibilityMPH,Wind Direction,Wind SpeedMPH,Gust SpeedMPH,PrecipitationIn,Events,Conditions,WindDirDegrees,DateUTC
12:52 AM,46.9,7.0,20,29.94,10.0,West,10.4,-,N/A,,Clear,260,2013-03-20 04:52:00
1:52 AM,46.0,8.1,21,29.96,10.0,West,16.1,23.0,N/A,,Clear,260,2013-03-20 05:52:00
2:52 AM,44.1,8.1,23,29.97,10.0,WNW,13.8,19.6,N/A,,Clear,290,2013-03-20 06:52:00
3:52 AM,42.1,9.0,26,29.96,10.0,WNW,12.7,-,N/A,,Clear,290,2013-03-20 07:52:00
4:52 AM,39.9,10.9,31,29.96,10.0,West,8.1,-,N/A,,Clear,280,2013-03-20 08:52:00
5:11 AM,37.4,10.4,33,29.96,10.0,West,9.2,-,N/A,,Clear,280,2013-03-20 09:11:00
5:52 AM,35.1,12.0,39,29.98,10.0,SW,5.8,-,N/A,,Clear,230,2013-03-20 09:52:00
6:52 AM,33.1,15.1,48,29.99,10.0,South,4.6,-,N/A,,Clear,190,2013-03-20 10:52:00
7:52 AM,30.0,19.9,66,30.01,10.0,SW,3.5,-,N/A,,Partly Cloudy,230,2013-03-20 11:52:00
8:52 AM,43.0,12.0,28,30.02,10.0,Calm,Calm,-,N/A,,Partly Cloudy,0,2013-03-20 12:52:00
9:52 AM,46.0,12.9,26,30.02,10.0,WSW,9.2,-,N/A,,Partly Cloudy,250,2013-03-20 13:52:00
10:52 AM,46.9,14.0,27,30.01,10.0,West,11.5,-,N/A,,Partly Cloudy,260,2013-03-20 14:52:00
11:52 AM,48.0,15.1,27,30.00,10.0,West,12.7,21.9,N/A,,Partly Cloudy,270,2013-03-20 15:52:00
12:52 PM,50.0,15.1,25,29.98,10.0,WSW,11.5,23.0,N/A,,Scattered Clouds,240,2013-03-20 16:52:00
1:52 PM,51.1,16.0,25,29.95,10.0,WSW,10.4,20.7,N/A,,Scattered Clouds,240,2013-03-20 17:52:00
2:52 PM,52.0,16.0,24,29.90,10.0,SSW,13.8,20.7,N/A,,Scattered Clouds,210,2013-03-20 18:52:00
3:52 PM,53.1,14.0,21,29.87,10.0,WSW,9.2,23.0,N/A,,Scattered Clouds,250,2013-03-20 19:52:00
4:52 PM,48.9,25.0,39,29.84,10.0,SE,9.2,18.4,N/A,,Scattered Clouds,130,2013-03-20 20:52:00
5:52 PM,46.0,30.9,56,29.82,10.0,SE,11.5,-,N/A,,Scattered Clouds,130,2013-03-20 21:52:00
6:52 PM,45.0,34.0,65,29.81,10.0,ESE,10.4,-,N/A,,Scattered Clouds,120,2013-03-20 22:52:00
7:52 PM,45.0,28.9,53,29.80,10.0,SSE,4.6,-,N/A,,Mostly Cloudy,160,2013-03-20 23:52:00
8:52 PM,45.0,23.0,42,29.80,10.0,South,3.5,-,N/A,,Partly Cloudy,180,2013-03-21 00:52:00
9:52 PM,44.1,24.1,45,29.79,10.0,South,5.8,-,N/A,,Partly Cloudy,180,2013-03-21 01:52:00
10:52 PM,46.0,23.0,40,29.78,10.0,South,5.8,-,N/A,,Partly Cloudy,170,2013-03-21 02:52:00
11:52 PM,46.0,19.9,35,29.77,10.0,South,6.9,-,N/A,,Mostly Cloudy,190,2013-03-21 03:52:00